SCP
-0 0 0 0 0 0 -0 0 -0 0 0 0 -0 -0 -0 -0 -0 0 -0 -0 -0 0 0 0 -0 -0 -0 -0 -0 -0 0 0 0 0 0 0 0 0 0 0 0 0 0 0 0 0 0 0 0
0 0 0 0 0 0 0 0 -0 -0 -0 0 -0 -0 -0 -0 -0 0 0 -0 -0 -0 0 0 -0 -0 -0 -0 -0 -0 0 0 0 0 0 0 0 0 0 0 0 0 0 0 0 0 0 0 0
0 0 0 0 -0 0 0 -0 -0 -0 -0 -0 -0 -0 -0 0 -0 0 0 0 0 0 0 0 -0 -0 -0 -0 -0 -0 -0 0 0 0 0 0 0 0 0 0 0 0 0 0 0 0 0 0 0
0 0 0 0 -0 -0 -0 -0 -0 -0 -0 -0 -0 -0 -0 -0 0 0 0 -0 -0 -0 -0 -0 -0 -0 -0 0 0 0 0 0 0 0 0 0 0 0 0 0 0 0 0 0 0 0 0 0 0
0 0 0 -0 -0 0 -0 0 0 -0 -0 -0 0 -0 -0 0 -0 0 -0 -0 -0 -0 0 0 0 0 0 0 0 0 0 0 0 0 0 0 0 0 0 0 0 0 0 0 0 0 0 0 0
0 0 0 0 -0 -0 0 0 0 -0 -0 -0 -0 -0 0 0 -0 -0 -0 0 0 0 0 0 0 0 0 0 0 0 0 0 0 0 0 0 0 0 0 0 0 0 0 0 0 0 0 0 0
0 0 -0 -0 0 0 -0 -0 -0 -0 -0 0 0 0 0 -0 -0 -0 0 0 0 0 0 0 0 0 0 0 0 0 0 0 0 0 0 0 0 0 0 0 0 0 0 0 0 0 0 0 0
0 0 -0 -0 -0 0 -0 -0 0 0 0 -0 0 0 0 0 0 0 0 0 0 0 0 0 0 0 0 0 0 0 0 0 0 0 0 0 0 0 0 0 0 0 0 0 0 0 0 0 0
0 0 -0 -0 -0 -0 0 -0 0 0 0 0 0 0 0 0 0 0 0 0 0 0 0 0 0 0 0 0 0 0 0 0 0 0 0 0 0 0 0 0 0 0 0 0 0 0 0 0 0
-0 0 -0 0 0 0 0 -0 0 0 0 0 0 0 0 0 0 0 0 0 -0 0 0 0 0 0 0 0 0 0 0 0 0 0 0 0 0 0 0 0 0 0 0 0 0 0 0 0 0
-0 -0 -0 0 0 0 0 0 0 0 -0 0 0 0 0 0 0 0 0 0 0 0 0 0 0 0 0 0 0 0 0 0 0 0 0 0 0 0 0 0 0 0 0 0 0 0 0 0 0
-0 0 -0 -0 0 0 -0 -0 -0 0 -0 -0 0 0 0 0 0 0 0 0 0 0 0 0 0 0 0 0 0 0 0 0 0 0 0 0 0 0 0 0 0 0 0 0 0 1 0 0 0
-0 0 -0 -0 0 -0 -0 -0 0 0 -0 0 0 0 0 0 0 0 0 0 0 0 0 0 0 0 0 0 0 0 0 0 0 0 0 0 0 0 0 0 0 0 0 0 0 0 0 0 0
0 0 -0 0 0 0 0 0 0 0 0 0 0 0 0 0 0 0 0 0 0 0 0 0 0 0 0 0 0 0 0 0 0 0 0 0 0 0 0 0 0 0 0 0 0 0 0 0 0
0 0 0 0 0 0 0 0 0 0 0 0 0 0 0 0 0 0 0 0 0 0 0 0 0 0 0 0 0 0 0 0 0 0 0 0 0 0 0 0 0 0 0 0 0 0 0 0 0
0 0 0 0 0 0 0 0 0 0 0 0 0 0 0 0 0 0 0 0 0 0 0 0 0 0 0 0 0 0 0 0 0 0 0 0 0 0 0 0 0 0 0 0 0 0 0 0 0
0 0 0 0 0 0 0 0 0 0 0 0 0 0 0 0 0 0 0 0 0 0 0 0 0 0 0 0 0 0 0 0 0 0 0 0 0 0 -0 0 0 0 0 0 0 0 0 0 0
0 0 0 0 0 0 0 0 0 0 0 0 0 0 0 0 0 0 0 0 0 0 0 0 0 0 0 0 0 0 0 0 0 0 0 0 0 0 0 0 0 0 0 0 0 0 0 0 0
0 0 0 0 0 0 0 0 0 0 0 0 0 0 0 0 0 0 0 0 0 0 0 0 0 0 0 0 0 0 0 0 0 0 0 0 0 0 -0 -0 0 0 0 0 0 0 0 0 0
0 0 0 0 0 0 0 0 0 0 0 0 0 0 0 0 0 0 0 0 0 0 0 0 0 0 0 0 0 0 0 0 0 0 0 0 0 0 0 -0 -0 -0 0 0 0 0 0 0 -0
0 0 0 0 0 0 0 0 0 0 0 0 0 0 0 0 0 0 0 0 0 0 0 0 0 0 0 -0 0 0 0 0 0 0 0 0 0 0 0 0 0 -0 0 0 0 0 0 0 0
0 0 0 0 0 0 0 0 0 0 0 0 0 0 0 0 0 0 0 0 0 0 0 0 0 -0 -0 -0 0 0 0 0 0 0 0 0 0 0 0 0 -0 -0 0 0 0 0 0 0 0
0 0 0 0 0 0 0 0 0 0 0 0 0 0 0 0 0 0 0 0 0 0 0 -0 -0 -0 -0 -0 -0 0 0 0 0 0 0 0 0 0 0 0 0 0 0 0 0 0 0 0 0
0 0 0 0 0 0 0 0 0 0 0 0 0 0 0 0 0 0 0 0 0 0 0 -0 -0 -0 -0 -0 -0 -0 0 0 0 0 0 0 0 0 0 0 0 0 0 0 0 0 0 0 0
0 0 0 0 0 0 0 0 0 0 0 0 0 0 0 0 0 0 0 0 0 0 -0 -0 -0 -0 -0 -0 -0 -0 -0 0 0 0 0 0 0 0 0 0 0 0 0 0 0 0 0 0 0
0 0 0 0 0 0 0 0 0 0 0 0 0 0 0 0 0 0 0 0 0 0 -0 -0 -0 -0 -0 -0 -0 -0 -0 0 0 0 0 0 0 0 0 0 0 0 0 0 0 0 0 0 0
0 0 0 0 0 0 0 0 0 0 0 0 0 0 0 0 0 0 0 0 0 0 -0 -0 -0 -0 -0 -0 -0 -0 -0 -0 0 0 0 0 0 0 0 0 0 0 0 0 0 0 0 0 0
0 0 0 0 0 0 0 0 0 0 0 0 0 0 0 0 0 0 0 0 0 0 -0 -0 -0 -0 -0 -0 -0 -0 -0 -0 0 0 0 0 0 0 0 0 0 0 0 0 0 0 0 0 0
0 0 0 0 0 0 0 0 0 0 0 0 0 0 0 0 0 0 0 0 0 0 -0 -0 -0 -0 -0 -0 -0 -0 -0 0 0 0 0 0 0 0 0 0 0 0 0 0 0 0 0 0 0
0 0 0 0 0 0 0 0 0 0 0 0 0 0 0 0 0 0 0 0 0 0 0 -0 -0 -0 -0 -0 -0 -0 -0 -0 0 -0 -0 0 0 0 0 0 0 0 0 0 0 0 0 0 0
Wind_Speed_500mb
4 1 1 5 5 5 9 8 16 12 9 30 25 25 26 34 11 5 17 23 34 35 37 38 38 37 34 32 33 32 32 30 28 26 29 27 27 27 26 24 23 18 15 12 14 22 19 19 22
3 5 5 12 3 4 8 6 21 20 22 15 18 13 16 11 20 4 17 31 32 37 39 41 40 40 39 36 35 35 35 34 35 35 28 32 31 30 30 31 31 28 23 19 19 23 29 29 33
7 3 9 6 7 5 11 21 19 22 13 9 12 23 12 7 18 10 23 29 30 35 39 41 42 44 45 43 42 41 39 39 40 40 39 33 36 37 36 35 33 35 32 28 25 26 30 37 37
7 6 11 4 22 26 22 16 24 23 20 17 18 16 15 12 7 18 24 29 32 36 40 43 45 46 49 51 50 47 44 43 43 45 47 47 41 40 42 39 38 38 40 38 35 30 32 34 39
4 11 6 16 22 15 16 15 5 15 15 10 4 13 16 10 11 19 27 32 36 40 44 46 49 51 51 51 51 52 51 48 45 46 49 52 54 49 45 46 45 45 45 46 45 41 36 34 36
10 10 6 9 15 14 12 9 16 22 22 13 24 21 11 3 19 26 30 34 37 41 48 52 51 49 47 47 50 52 53 53 51 49 49 53 58 60 58 52 52 52 50 49 50 48 43 37 36
11 6 9 20 14 10 12 4 12 14 20 12 5 2 14 8 22 27 27 29 34 44 53 58 61 62 59 53 48 50 51 52 51 50 51 53 57 61 63 63 60 57 60 58 53 54 49 41 38
12 4 1 10 14 9 13 9 8 17 11 10 5 5 11 16 23 24 25 26 36 44 53 58 60 60 57 53 52 52 51 53 56 54 52 53 57 58 61 68 67 62 60 63 60 59 58 48 39
2 6 8 3 12 14 25 11 5 11 20 14 9 12 7 15 21 25 31 37 44 50 54 57 57 55 51 49 48 48 47 47 50 53 55 56 54 56 56 62 70 66 59 61 60 58 66 56 34
6 5 11 15 14 15 25 19 17 13 19 14 13 12 11 15 22 29 35 44 51 56 55 56 58 55 50 49 51 50 51 49 50 52 54 54 53 56 60 59 59 59 61 51 55 54 61 46 37
12 7 11 14 7 32 19 22 12 9 12 17 19 8 10 16 22 28 36 43 50 53 55 59 55 46 45 49 50 53 52 51 51 50 53 56 58 54 55 56 58 58 58 54 54 54 60 49 44
9 14 10 13 11 20 16 23 10 6 15 19 12 7 9 17 25 33 41 46 50 53 53 51 47 44 47 50 53 57 56 56 60 60 57 51 50 52 47 49 49 58 58 50 60 61 67 66 57
13 9 20 18 15 16 18 12 4 15 18 14 9 6 10 16 25 29 34 39 45 50 51 47 44 46 52 52 52 51 47 52 60 59 55 51 53 56 51 50 50 48 56 66 43 47 61 62 60
17 20 24 16 16 11 9 6 1 23 23 15 9 3 10 19 23 28 35 39 44 46 45 43 43 43 49 49 47 43 44 46 56 60 55 52 51 52 52 46 43 42 54 57 60 55 59 67 63
30 13 9 11 16 7 6 7 13 30 27 19 9 2 9 13 17 26 30 34 39 42 40 44 45 48 44 45 40 42 44 49 52 57 62 59 53 48 44 43 43 35 36 43 45 44 59 56 53
6 9 7 14 17 7 7 6 17 30 27 22 16 5 4 8 17 23 28 32 34 35 39 48 43 48 46 36 38 46 47 47 50 53 56 57 55 48 40 40 36 34 31 38 28 45 57 53 54
6 6 12 10 26 10 13 1 25 25 25 23 19 11 1 4 14 20 25 28 30 34 38 42 46 53 48 41 46 44 37 50 52 54 53 57 58 49 35 33 28 23 22 30 29 33 33 44 55
12 9 7 10 17 15 14 20 15 27 26 25 20 14 8 3 8 13 19 24 28 33 39 42 49 53 51 50 48 51 52 48 56 55 56 52 46 43 40 30 25 23 28 22 23 40 41 46 56
9 13 9 11 12 11 19 19 18 43 35 27 25 18 12 6 1 8 14 20 26 31 37 47 55 60 60 57 55 53 57 62 65 58 55 49 53 37 38 37 35 25 17 17 16 27 43 38 36
5 8 2 8 9 8 13 25 25 30 37 40 30 26 19 13 6 4 7 16 23 30 38 42 53 58 62 66 62 60 60 66 67 67 61 62 59 51 42 44 42 36 21 23 23 21 23 26 28
7 10 4 4 9 11 11 15 17 16 32 36 25 26 23 19 13 6 4 14 19 30 40 44 46 50 55 55 56 59 60 56 56 69 74 77 74 73 61 52 43 38 38 38 36 31 24 16 8
9 9 3 14 8 6 9 9 5 18 17 22 31 25 28 23 16 11 13 16 21 29 34 40 46 50 50 54 59 64 65 65 64 65 67 67 70 72 69 66 64 61 54 49 45 36 30 23 26
2 4 4 7 8 7 9 2 11 17 17 20 36 42 37 28 21 19 25 22 22 24 28 32 35 39 42 46 48 53 56 57 57 60 60 62 63 63 61 60 59 56 54 53 53 48 49 48 46
12 6 7 3 3 4 18 16 9 13 16 27 42 50 44 37 29 31 30 19 19 23 28 30 32 34 35 37 40 43 45 47 48 52 57 60 61 63 63 61 61 59 57 53 49 44 43 42 40
2 5 1 5 2 11 12 10 14 8 13 22 46 55 50 40 38 40 29 26 24 24 25 25 25 27 31 34 36 40 43 47 52 54 56 57 58 61 61 57 56 55 52 49 47 43 41 43 39
8 2 7 12 8 7 8 12 12 9 10 28 56 59 52 47 44 41 37 31 26 24 20 19 19 23 28 32 36 38 40 44 47 49 52 55 57 59 57 55 55 53 51 50 49 48 46 45 43
6 11 3 3 2 3 11 12 2 1 5 36 49 57 56 54 51 48 43 34 30 24 18 15 16 22 27 28 30 32 35 39 43 45 47 51 52 53 53 55 54 54 53 53 53 53 53 49 45
5 10 4 3 4 10 10 11 12 16 21 28 36 50 56 58 56 51 47 39 34 25 19 14 15 20 23 23 25 29 34 37 39 40 45 47 48 50 51 54 53 52 52 52 52 53 53 51 50
9 5 5 4 6 7 5 10 3 21 39 43 47 59 60 65 65 58 51 43 36 28 20 15 15 18 19 20 21 27 31 33 35 40 41 46 46 49 53 51 50 54 56 53 52 51 51 50 48
10 20 17 9 11 9 2 19 5 3 33 46 51 56 62 69 68 63 56 48 39 31 22 16 15 15 15 16 19 23 28 31 33 38 40 46 48 50 50 51 51 51 53 53 51 50 50 50 51
Wind_Direction_500mb
253 52 353 308 252 204 124 62 92 130 93 63 60 72 88 44 10 52 329 324 344 352 354 350 345 339 332 323 315 312 308 302 292 289 288 281 276 276 278 269 267 275 279 264 242 243 246 227 214
231 112 301 265 237 128 73 118 70 71 104 99 62 89 48 86 47 41 350 341 349 350 349 346 343 337 332 325 315 307 304 295 288 284 277 277 276 269 268 273 265 263 265 259 253 244 244 243 245
146 112 280 263 105 2 103 76 94 98 103 78 118 60 49 10 21 360 324 343 351 351 349 346 340 335 330 325 320 314 304 295 284 278 272 269 272 272 268 263 265 262 260 253 254 258 251 246 249
105 275 257 9 84 43 88 83 110 111 85 66 103 95 84 38 28 335 339 347 347 348 344 340 337 332 328 323 318 313 309 302 291 279 269 267 261 265 266 266 262 261 257 252 254 256 258 252 251
154 263 254 93 79 97 74 79 136 81 80 80 328 84 107 51 5 342 351 346 344 343 336 336 333 331 327 321 316 313 309 303 298 287 276 269 266 263 261 264 265 263 257 254 251 254 256 259 249
264 274 253 152 118 107 97 80 96 94 107 86 100 121 111 64 345 357 354 347 341 336 335 336 333 331 327 322 317 311 306 303 298 293 281 273 265 263 265 262 261 261 259 253 254 254 255 258 251
244 240 4 97 116 153 125 134 77 105 132 62 49 99 125 353 348 4 350 350 340 334 335 336 333 334 333 330 324 314 308 301 296 289 285 278 270 264 259 259 261 260 261 254 252 250 252 257 253
325 327 167 80 171 113 128 101 97 20 78 103 40 41 89 347 355 2 351 339 337 337 336 333 333 332 329 328 326 323 318 308 302 295 285 278 274 270 268 260 258 261 262 261 254 245 243 246 250
277 295 165 105 157 118 145 130 81 114 114 77 71 83 45 4 350 351 347 342 344 342 340 335 332 329 327 328 329 327 324 319 311 301 293 285 278 272 265 264 257 257 260 261 255 240 237 235 238
2 303 47 17 40 131 169 133 136 145 139 127 112 86 18 11 354 353 349 346 346 342 338 332 332 334 334 336 335 335 333 328 322 318 311 299 282 272 266 258 261 249 252 257 250 239 228 223 221
16 47 110 48 50 134 135 110 143 166 197 116 126 94 16 10 356 355 348 348 343 338 337 338 342 344 346 344 344 342 335 331 326 319 313 308 300 285 275 266 255 256 247 250 244 239 228 216 226
98 21 74 119 106 118 150 136 174 243 92 129 153 99 16 8 359 356 348 346 341 340 341 346 350 353 350 348 348 345 342 342 344 338 330 322 309 304 288 277 267 249 252 250 247 237 239 241 230
88 111 98 117 117 126 117 157 135 150 144 137 125 61 21 3 358 355 345 345 339 343 344 348 353 357 356 352 346 339 343 342 348 344 339 330 318 307 298 277 271 251 245 251 259 235 244 237 233
110 118 121 139 118 127 173 122 190 173 160 160 137 69 14 3 1 347 351 348 341 344 350 356 357 360 357 355 354 359 4 357 352 350 344 334 322 312 307 296 280 277 247 247 265 239 237 246 239
123 109 126 165 162 134 269 198 226 161 164 180 177 152 24 4 356 354 352 345 346 346 354 4 7 3 1 4 11 13 8 359 350 346 346 342 329 317 307 305 293 281 269 251 260 254 248 240 237
186 158 182 158 163 131 189 292 159 156 169 195 191 197 50 7 360 357 353 351 351 357 11 14 8 14 10 13 18 26 12 2 2 353 348 341 334 322 312 306 300 289 285 258 253 266 246 242 253
209 262 189 177 191 136 201 203 136 165 187 208 195 184 139 16 349 4 360 358 4 16 17 18 32 27 28 25 24 27 6 10 9 4 3 354 354 348 329 320 315 309 301 282 267 274 271 257 249
181 211 184 175 195 203 200 257 159 181 199 216 206 190 172 88 355 13 6 11 28 37 37 35 35 36 37 35 39 36 32 27 22 22 15 14 4 10 6 5 5 356 346 337 279 263 290 284 263
320 199 218 103 141 179 235 262 236 186 196 212 204 190 164 152 89 42 15 22 42 44 44 44 45 42 39 39 39 38 41 40 34 33 22 21 30 31 39 28 35 22 18 358 320 283 286 312 305
287 286 126 36 129 190 276 253 235 188 187 194 201 187 165 169 168 78 36 42 45 52 51 48 51 48 48 48 49 49 45 47 43 43 41 44 43 41 37 40 40 37 27 27 13 347 323 313 286
236 244 193 80 156 241 306 273 223 207 161 185 193 174 167 180 178 158 90 69 62 66 58 56 59 58 54 52 51 51 51 49 47 48 44 46 46 48 51 54 54 46 43 42 35 23 3 9 357
223 6 360 128 158 251 169 273 210 169 158 174 168 178 179 182 177 159 126 101 86 81 77 70 64 63 63 59 56 55 55 51 48 48 48 46 46 47 46 46 46 45 46 43 39 30 23 19 15
148 292 123 159 216 44 203 305 250 140 203 190 178 188 180 177 180 156 135 122 105 94 82 75 68 63 58 57 55 56 54 51 48 49 50 49 47 45 44 42 43 44 44 40 33 26 28 29 28
157 95 62 317 207 276 207 181 238 191 214 185 179 182 175 179 173 155 142 141 128 110 95 82 73 65 60 55 54 52 52 51 49 45 43 41 39 38 38 37 38 38 37 34 32 27 26 27 29
342 147 356 332 319 233 348 200 248 165 172 177 172 167 173 176 175 162 155 154 138 121 105 89 77 67 60 56 51 47 45 44 42 38 36 36 35 35 35 32 32 32 31 30 28 26 21 18 18
188 278 192 227 205 229 30 231 252 8 106 162 165 164 171 173 176 170 169 162 146 131 111 92 79 69 62 58 54 49 45 42 40 38 36 35 33 32 30 29 29 29 28 27 24 22 21 18 13
198 219 349 261 313 19 213 251 232 173 178 143 153 162 173 175 178 179 174 168 156 143 120 96 82 73 67 61 58 49 44 43 41 37 36 36 35 33 30 29 28 27 25 23 21 20 18 16 15
230 331 138 259 259 257 257 226 232 194 187 166 167 173 176 178 180 184 179 174 166 158 136 114 99 84 75 64 54 51 47 41 43 42 42 40 38 33 31 30 28 26 24 22 19 18 17 14 14
157 217 210 300 233 234 278 255 338 184 185 182 178 179 180 181 181 185 184 179 175 171 151 132 114 95 82 68 57 53 51 47 47 47 43 41 36 33 31 31 30 28 26 23 22 19 14 12 12
218 220 183 208 231 228 221 256 54 46 185 181 180 182 183 184 184 188 188 183 181 179 164 144 126 108 93 75 60 57 58 55 51 48 44 42 37 37 31 31 32 32 30 27 24 20 15 11 12
Wind_Speed_850mb
4 1 1 5 5 5 9 8 16 12 9 30 25 25 26 34 11 5 17 23 34 35 37 38 38 37 34 32 33 32 32 30 28 26 29 27 27 27 26 24 23 18 15 12 14 22 19 19 22
3 5 5 12 3 4 8 6 21 20 22 15 18 13 16 11 20 4 17 31 32 37 39 41 40 40 39 36 35 35 35 34 35 35 28 32 31 30 30 31 31 28 23 19 19 23 29 29 33
7 3 9 6 7 5 11 21 19 22 13 9 12 23 12 7 18 10 23 29 30 35 39 41 42 44 45 43 42 41 39 39 40 40 39 33 36 37 36 35 33 35 32 28 25 26 30 37 37
7 6 11 4 22 26 22 16 24 23 20 17 18 16 15 12 7 18 24 29 32 36 40 43 45 46 49 51 50 47 44 43 43 45 47 47 41 40 42 39 38 38 40 38 35 30 32 34 39
4 11 6 16 22 15 16 15 5 15 15 10 4 13 16 10 11 19 27 32 36 40 44 46 49 51 51 51 51 52 51 48 45 46 49 52 54 49 45 46 45 45 45 46 45 41 36 34 36
10 10 6 9 15 14 12 9 16 22 22 13 24 21 11 3 19 26 30 34 37 41 48 52 51 49 47 47 50 52 53 53 51 49 49 53 58 60 58 52 52 52 50 49 50 48 43 37 36
11 6 9 20 14 10 12 4 12 14 20 12 5 2 14 8 22 27 27 29 34 44 53 58 61 62 59 53 48 50 51 52 51 50 51 53 57 61 63 63 60 57 60 58 53 54 49 41 38
12 4 1 10 14 9 13 9 8 17 11 10 5 5 11 16 23 24 25 26 36 44 53 58 60 60 57 53 52 52 51 53 56 54 52 53 57 58 61 68 67 62 60 63 60 59 58 48 39
2 6 8 3 12 14 25 11 5 11 20 14 9 12 7 15 21 25 31 37 44 50 54 57 57 55 51 49 48 48 47 47 50 53 55 56 54 56 56 62 70 66 59 61 60 58 66 56 34
6 5 11 15 14 15 25 19 17 13 19 14 13 12 11 15 22 29 35 44 51 56 55 56 58 55 50 49 51 50 51 49 50 52 54 54 53 56 60 59 59 59 61 51 55 54 61 46 37
12 7 11 14 7 32 19 22 12 9 12 17 19 8 10 16 22 28 36 43 50 53 55 59 55 46 45 49 50 53 52 51 51 50 53 56 58 54 55 56 58 58 58 54 54 54 60 49 44
9 14 10 13 11 20 16 23 10 6 15 19 12 7 9 17 25 33 41 46 50 53 53 51 47 44 47 50 53 57 56 56 60 60 57 51 50 52 47 49 49 58 58 50 60 61 67 66 57
13 9 20 18 15 16 18 12 4 15 18 14 9 6 10 16 25 29 34 39 45 50 51 47 44 46 52 52 52 51 47 52 60 59 55 51 53 56 51 50 50 48 56 66 43 47 61 62 60
17 20 24 16 16 11 9 6 1 23 23 15 9 3 10 19 23 28 35 39 44 46 45 43 43 43 49 49 47 43 44 46 56 60 55 52 51 52 52 46 43 42 54 57 60 55 59 67 63
30 13 9 11 16 7 6 7 13 30 27 19 9 2 9 13 17 26 30 34 39 42 40 44 45 48 44 45 40 42 44 49 52 57 62 59 53 48 44 43 43 35 36 43 45 44 59 56 53
6 9 7 14 17 7 7 6 17 30 27 22 16 5 4 8 17 23 28 32 34 35 39 48 43 48 46 36 38 46 47 47 50 53 56 57 55 48 40 40 36 34 31 38 28 45 57 53 54
6 6 12 10 26 10 13 1 25 25 25 23 19 11 1 4 14 20 25 28 30 34 38 42 46 53 48 41 46 44 37 50 52 54 53 57 58 49 35 33 28 23 22 30 29 33 33 44 55
12 9 7 10 17 15 14 20 15 27 26 25 20 14 8 3 8 13 19 24 28 33 39 42 49 53 51 50 48 51 52 48 56 55 56 52 46 43 40 30 25 23 28 22 23 40 41 46 56
9 13 9 11 12 11 19 19 18 43 35 27 25 18 12 6 1 8 14 20 26 31 37 47 55 60 60 57 55 53 57 62 65 58 55 49 53 37 38 37 35 25 17 17 16 27 43 38 36
5 8 2 8 9 8 13 25 25 30 37 40 30 26 19 13 6 4 7 16 23 30 38 42 53 58 62 66 62 60 60 66 67 67 61 62 59 51 42 44 42 36 21 23 23 21 23 26 28
7 10 4 4 9 11 11 15 17 16 32 36 25 26 23 19 13 6 4 14 19 30 40 44 46 50 55 55 56 59 60 56 56 69 74 77 74 73 61 52 43 38 38 38 36 31 24 16 8
9 9 3 14 8 6 9 9 5 18 17 22 31 25 28 23 16 11 13 16 21 29 34 40 46 50 50 54 59 64 65 65 64 65 67 67 70 72 69 66 64 61 54 49 45 36 30 23 26
2 4 4 7 8 7 9 2 11 17 17 20 36 42 37 28 21 19 25 22 22 24 28 32 35 39 42 46 48 53 56 57 57 60 60 62 63 63 61 60 59 56 54 53 53 48 49 48 46
12 6 7 3 3 4 18 16 9 13 16 27 42 50 44 37 29 31 30 19 19 23 28 30 32 34 35 37 40 43 45 47 48 52 57 60 61 63 63 61 61 59 57 53 49 44 43 42 40
2 5 1 5 2 11 12 10 14 8 13 22 46 55 50 40 38 40 29 26 24 24 25 25 25 27 31 34 36 40 43 47 52 54 56 57 58 61 61 57 56 55 52 49 47 43 41 43 39
8 2 7 12 8 7 8 12 12 9 10 28 56 59 52 47 44 41 37 31 26 24 20 19 19 23 28 32 36 38 40 44 47 49 52 55 57 59 57 55 55 53 51 50 49 48 46 45 43
6 11 3 3 2 3 11 12 2 1 5 36 49 57 56 54 51 48 43 34 30 24 18 15 16 22 27 28 30 32 35 39 43 45 47 51 52 53 53 55 54 54 53 53 53 53 53 49 45
5 10 4 3 4 10 10 11 12 16 21 28 36 50 56 58 56 51 47 39 34 25 19 14 15 20 23 23 25 29 34 37 39 40 45 47 48 50 51 54 53 52 52 52 52 53 53 51 50
9 5 5 4 6 7 5 10 3 21 39 43 47 59 60 65 65 58 51 43 36 28 20 15 15 18 19 20 21 27 31 33 35 40 41 46 46 49 53 51 50 54 56 53 52 51 51 50 48
10 20 17 9 11 9 2 19 5 3 33 46 51 56 62 69 68 63 56 48 39 31 22 16 15 15 15 16 19 23 28 31 33 38 40 46 48 50 50 51 51 51 53 53 51 50 50 50 51
Wind_Direction_850mb
253 52 353 308 252 204 124 62 92 130 93 63 60 72 88 44 10 52 329 324 344 352 354 350 345 339 332 323 315 312 308 302 292 289 288 281 276 276 278 269 267 275 279 264 242 243 246 227 214
231 112 301 265 237 128 73 118 70 71 104 99 62 89 48 86 47 41 350 341 349 350 349 346 343 337 332 325 315 307 304 295 288 284 277 277 276 269 268 273 265 263 265 259 253 244 244 243 245
146 112 280 263 105 2 103 76 94 98 103 78 118 60 49 10 21 360 324 343 351 351 349 346 340 335 330 325 320 314 304 295 284 278 272 269 272 272 268 263 265 262 260 253 254 258 251 246 249
105 275 257 9 84 43 88 83 110 111 85 66 103 95 84 38 28 335 339 347 347 348 344 340 337 332 328 323 318 313 309 302 291 279 269 267 261 265 266 266 262 261 257 252 254 256 258 252 251
154 263 254 93 79 97 74 79 136 81 80 80 328 84 107 51 5 342 351 346 344 343 336 336 333 331 327 321 316 313 309 303 298 287 276 269 266 263 261 264 265 263 257 254 251 254 256 259 249
264 274 253 152 118 107 97 80 96 94 107 86 100 121 111 64 345 357 354 347 341 336 335 336 333 331 327 322 317 311 306 303 298 293 281 273 265 263 265 262 261 261 259 253 254 254 255 258 251
244 240 4 97 116 153 125 134 77 105 132 62 49 99 125 353 348 4 350 350 340 334 335 336 333 334 333 330 324 314 308 301 296 289 285 278 270 264 259 259 261 260 261 254 252 250 252 257 253
325 327 167 80 171 113 128 101 97 20 78 103 40 41 89 347 355 2 351 339 337 337 336 333 333 332 329 328 326 323 318 308 302 295 285 278 274 270 268 260 258 261 262 261 254 245 243 246 250
277 295 165 105 157 118 145 130 81 114 114 77 71 83 45 4 350 351 347 342 344 342 340 335 332 329 327 328 329 327 324 319 311 301 293 285 278 272 265 264 257 257 260 261 255 240 237 235 238
2 303 47 17 40 131 169 133 136 145 139 127 112 86 18 11 354 353 349 346 346 342 338 332 332 334 334 336 335 335 333 328 322 318 311 299 282 272 266 258 261 249 252 257 250 239 228 223 221
16 47 110 48 50 134 135 110 143 166 197 116 126 94 16 10 356 355 348 348 343 338 337 338 342 344 346 344 344 342 335 331 326 319 313 308 300 285 275 266 255 256 247 250 244 239 228 216 226
98 21 74 119 106 118 150 136 174 243 92 129 153 99 16 8 359 356 348 346 341 340 341 346 350 353 350 348 348 345 342 342 344 338 330 322 309 304 288 277 267 249 252 250 247 237 239 241 230
88 111 98 117 117 126 117 157 135 150 144 137 125 61 21 3 358 355 345 345 339 343 344 348 353 357 356 352 346 339 343 342 348 344 339 330 318 307 298 277 271 251 245 251 259 235 244 237 233
110 118 121 139 118 127 173 122 190 173 160 160 137 69 14 3 1 347 351 348 341 344 350 356 357 360 357 355 354 359 4 357 352 350 344 334 322 312 307 296 280 277 247 247 265 239 237 246 239
123 109 126 165 162 134 269 198 226 161 164 180 177 152 24 4 356 354 352 345 346 346 354 4 7 3 1 4 11 13 8 359 350 346 346 342 329 317 307 305 293 281 269 251 260 254 248 240 237
186 158 182 158 163 131 189 292 159 156 169 195 191 197 50 7 360 357 353 351 351 357 11 14 8 14 10 13 18 26 12 2 2 353 348 341 334 322 312 306 300 289 285 258 253 266 246 242 253
209 262 189 177 191 136 201 203 136 165 187 208 195 184 139 16 349 4 360 358 4 16 17 18 32 27 28 25 24 27 6 10 9 4 3 354 354 348 329 320 315 309 301 282 267 274 271 257 249
181 211 184 175 195 203 200 257 159 181 199 216 206 190 172 88 355 13 6 11 28 37 37 35 35 36 37 35 39 36 32 27 22 22 15 14 4 10 6 5 5 356 346 337 279 263 290 284 263
320 199 218 103 141 179 235 262 236 186 196 212 204 190 164 152 89 42 15 22 42 44 44 44 45 42 39 39 39 38 41 40 34 33 22 21 30 31 39 28 35 22 18 358 320 283 286 312 305
287 286 126 36 129 190 276 253 235 188 187 194 201 187 165 169 168 78 36 42 45 52 51 48 51 48 48 48 49 49 45 47 43 43 41 44 43 41 37 40 40 37 27 27 13 347 323 313 286
236 244 193 80 156 241 306 273 223 207 161 185 193 174 167 180 178 158 90 69 62 66 58 56 59 58 54 52 51 51 51 49 47 48 44 46 46 48 51 54 54 46 43 42 35 23 3 9 357
223 6 360 128 158 251 169 273 210 169 158 174 168 178 179 182 177 159 126 101 86 81 77 70 64 63 63 59 56 55 55 51 48 48 48 46 46 47 46 46 46 45 46 43 39 30 23 19 15
148 292 123 159 216 44 203 305 250 140 203 190 178 188 180 177 180 156 135 122 105 94 82 75 68 63 58 57 55 56 54 51 48 49 50 49 47 45 44 42 43 44 44 40 33 26 28 29 28
157 95 62 317 207 276 207 181 238 191 214 185 179 182 175 179 173 155 142 141 128 110 95 82 73 65 60 55 54 52 52 51 49 45 43 41 39 38 38 37 38 38 37 34 32 27 26 27 29
342 147 356 332 319 233 348 200 248 165 172 177 172 167 173 176 175 162 155 154 138 121 105 89 77 67 60 56 51 47 45 44 42 38 36 36 35 35 35 32 32 32 31 30 28 26 21 18 18
188 278 192 227 205 229 30 231 252 8 106 162 165 164 171 173 176 170 169 162 146 131 111 92 79 69 62 58 54 49 45 42 40 38 36 35 33 32 30 29 29 29 28 27 24 22 21 18 13
198 219 349 261 313 19 213 251 232 173 178 143 153 162 173 175 178 179 174 168 156 143 120 96 82 73 67 61 58 49 44 43 41 37 36 36 35 33 30 29 28 27 25 23 21 20 18 16 15
230 331 138 259 259 257 257 226 232 194 187 166 167 173 176 178 180 184 179 174 166 158 136 114 99 84 75 64 54 51 47 41 43 42 42 40 38 33 31 30 28 26 24 22 19 18 17 14 14
157 217 210 300 233 234 278 255 338 184 185 182 178 179 180 181 181 185 184 179 175 171 151 132 114 95 82 68 57 53 51 47 47 47 43 41 36 33 31 31 30 28 26 23 22 19 14 12 12
218 220 183 208 231 228 221 256 54 46 185 181 180 182 183 184 184 188 188 183 181 179 164 144 126 108 93 75 60 57 58 55 51 48 44 42 37 37 31 31 32 32 30 27 24 20 15 11 12